Content
SEND FEEDBACK

Daily
Averages
Monthly
Summary
United States of America

ST. LOUIS - GATEWAY ARCH, MISSOURI


Home > North America > United States > Missouri
Elevation: 450 feet     Latitude: 38 37N     Longitude: 090 11W

WEATHER
 
SELECT A DAY
Number of Records: 186,092;   Date Range: 1/1/95 - 7/29/14
 
SHARE

PRINT THIS DATA

[ ← Previous Day ]
WEATHER ALMANAC - MARCH 12, 2013
[ Next Day → ]
[ °C ]   °F
Weather ElementAverageHighLow
Temperature37.9 °F48.9 °F (2:53 pm)30 °F (3:53 am)
Dewpoint23.2 °F26.1 °F (6:53 pm)21 °F (9:53 am)
Humidity57.1 %75 % (3:53 am)36 % (3:53 pm)
Barometer30.11 in30.22 in (11:53 pm)30.02 in (1:53 am)
Wind Speed11.2 mph23 mph (6:53 pm)
Wind Gust32.2 mph (5:53 pm)
Weather ElementAverage
Visibility10 mi
Wind DirectionW (270 °)

Weather ElementTotal
Precipitation---
Heating Degree Days25.6 (Base 65)
Averaged from 23 records on March 12, 2013
WEATHER CONDITIONS BREAKOUT
WIND DIRECTION BREAKOUT
WEATHER BY HOUR - MARCH 12, 2013
[ °C ]   °F
Local TimeTemperatureDewpointHumidityBarometerVisibilityWind DirectionWind SpeedGust SpeedPrecipitationEventsConditions
1:53 AM32.0 °F23.0 °F69 %30.02 in10.0 miWSW (250°)5.8 mphClear
2:53 AM30.9 °F23.0 °F72 %30.04 in10.0 miWest (270°)5.8 mphClear
3:53 AM30.0 °F23.0 °F75 %30.03 in10.0 miWest (260°)5.8 mphClear
4:53 AM30.0 °F23.0 °F75 %30.03 in10.0 miWSW (250°)5.8 mphClear
5:53 AM30.0 °F23.0 °F75 %30.06 in10.0 miWest (280°)8.1 mphClear
6:53 AM30.0 °F23.0 °F75 %30.07 in10.0 miWest (280°)5.8 mphClear
7:53 AM30.0 °F23.0 °F75 %30.09 in10.0 miWest (280°)6.9 mphClear
8:53 AM32.0 °F21.9 °F66 %30.12 in10.0 miWNW (290°)8.1 mphClear
9:53 AM34.0 °F21.0 °F59 %30.13 in10.0 miWest (280°)6.9 mphClear
10:53 AM37.0 °F21.0 °F52 %30.14 in10.0 miWNW (290°)6.9 mphClear
11:53 AM41.0 °F23.0 °F49 %30.13 in10.0 miWSW (250°)8.1 mphClear
12:53 PM45.0 °F24.1 °F44 %30.12 in10.0 miCalmClear
1:53 PM48.0 °F25.0 °F41 %30.10 in10.0 miWNW (300°)13.8 mphClear
2:53 PM48.9 °F25.0 °F39 %30.08 in10.0 miWest (260°)10.4 mph20.7 mphMostly Cloudy
3:53 PM48.9 °F23.0 °F36 %30.07 in10.0 miWest (280°)19.6 mph25.3 mphOvercast
4:53 PM48.0 °F24.1 °F39 %30.08 in10.0 miWNW (300°)21.9 mph27.6 mphOvercast
5:53 PM46.0 °F25.0 °F44 %30.10 in10.0 miWNW (290°)16.1 mph32.2 mphOvercast
6:53 PM43.0 °F26.1 °F51 %30.13 in10.0 miWNW (300°)23.0 mph28.8 mphScattered Clouds
7:53 PM39.0 °F24.1 °F55 %30.16 in10.0 miWNW (300°)19.6 mph31.1 mphClear
8:53 PM37.9 °F21.0 °F51 %30.18 in10.0 miWNW (290°)10.4 mph17.3 mphClear
9:53 PM37.0 °F23.0 °F57 %30.19 in10.0 miNW (310°)12.7 mph21.9 mphClear
10:53 PM37.0 °F24.1 °F59 %30.21 in10.0 miNW (310°)18.4 mph27.6 mphMostly Cloudy
11:53 PM36.0 °F21.0 °F55 %30.22 in10.0 miWNW (290°)18.4 mph31.1 mphOvercast
Hourly data recorded from KCPS, located miles away from St. Louis - Gateway Arch, Missouri







STORIES FROM OUR PARTNERS